Weather History for Los Alamos, NM

Change the Weather History Date:

Sunday, September 29, 2013

  Actual Average Record
Temperature  
Mean Temperature 56 °F -  
Max Temperature 67 °F 68 °F 82 °F (2010)
Min Temperature 44 °F 43 °F 31 °F (1984)
Degree Days  
Heating Degree Days 10    
Growing Degree Days 6 (Base 50)    
Moisture  
Dew Point 24 °F    
Average Humidity 30    
Maximum Humidity 48    
Minimum Humidity 16    
Precipitation  
Precipitation 0.00 in - - ()
Sea Level Pressure  
Sea Level Pressure 30.29 in    
Wind  
Wind Speed 2 mph (ENE)    
Max Wind Speed 9 mph    
Max Gust Speed -    
Visibility 10 miles    
Events      
Averages and records for this station are not official NWS values.
T = Trace of Precipitation, MM = Missing Value Source: NWS Daily Summary

Daily Weather History Graph

Daily Weather History Graph

Search for Another Location

Airport:

Trip Planner

Search our weather history database for the weather conditions in past years. The results will help you decide how hot, cold, wet, or windy it might be!

Date:

Astronomy

Sep. 29, 2013 Rise Set
Actual Time 6:58 AM MDT 6:51 PM MDT
Civil Twilight 6:33 AM MDT 7:16 PM MDT
Nautical Twilight 6:03 AM MDT 7:46 PM MDT
Astronomical Twilight 5:33 AM MDT 8:16 PM MDT
Moon 1:51 AM MDT (9/29) 3:41 PM MDT (9/29)
Length of Visible Light 12h 43m
Length of Day
11h 52m
Waning Crescent, 26% of the Moon is Illuminated
Sep 29
Waning Crescent
Oct 4
New
Oct 11
First Quarter
Oct 18
Full
Oct 26
Last Quarter

Hourly Weather History & Observations

Time (MDT) Temp. Windchill Dew Point Humidity Pressure Visibility Wind Dir Wind Speed Gust Speed Precip Events Conditions
12:15 AM 52.0 °F - 24.3 °F 34% 30.35 in 10.0 mi Calm Calm - N/A   Clear
12:35 AM 52.0 °F - 25.5 °F 36% 30.35 in 10.0 mi Calm Calm - N/A   Clear
12:55 AM 51.8 °F - 25.3 °F 36% 30.34 in 10.0 mi Calm Calm - N/A   Clear
1:15 AM 51.1 °F - 26.1 °F 38% 30.34 in 10.0 mi NW 4.6 mph - N/A   Clear
1:35 AM 50.9 °F - 24.3 °F 35% 30.34 in 10.0 mi Calm Calm - N/A   Clear
1:55 AM 51.4 °F - 22.6 °F 32% 30.34 in 10.0 mi Calm Calm - N/A   Clear
2:15 AM 51.1 °F - 21.7 °F 32% 30.34 in 10.0 mi Calm Calm - N/A   Clear
2:35 AM 50.9 °F - 21.7 °F 32% 30.33 in 10.0 mi Calm Calm - N/A   Clear
2:55 AM 49.3 °F - 23.5 °F 36% 30.33 in 10.0 mi Calm Calm - N/A   Clear
3:15 AM 48.2 °F - 23.9 °F 39% 30.33 in 10.0 mi North 3.5 mph - N/A   Clear
3:35 AM 48.4 °F - 22.8 °F 37% 30.32 in 10.0 mi Calm Calm - N/A   Clear
3:55 AM 48.2 °F - 22.8 °F 37% 30.33 in 10.0 mi Calm Calm - N/A   Clear
4:15 AM 48.4 °F - 22.5 °F 36% 30.33 in 10.0 mi Calm Calm - N/A   Clear
4:35 AM 48.6 °F - 21.4 °F 34% 30.33 in 10.0 mi North 3.5 mph - N/A   Clear
4:55 AM 48.2 °F - 21.9 °F 36% 30.33 in 10.0 mi Calm Calm - N/A   Clear
5:15 AM 44.8 °F - 24.4 °F 45% 30.33 in 10.0 mi Calm Calm - N/A   Clear
5:35 AM 44.2 °F - 25.5 °F 48% 30.33 in 10.0 mi Calm Calm - N/A   Clear
5:55 AM 45.3 °F - 24.8 °F 45% 30.33 in 10.0 mi Calm Calm - N/A   Clear
6:15 AM 45.7 °F - 24.1 °F 43% 30.33 in 10.0 mi Calm Calm - N/A   Clear
6:35 AM 45.9 °F - 25.2 °F 44% 30.33 in 7.0 mi Calm Calm - N/A   Clear
7:15 AM 46.2 °F - 24.3 °F 42% 30.33 in 10.0 mi Calm Calm - N/A   Clear
7:35 AM 46.4 °F 44.3 °F 24.3 °F 42% 30.33 in 10.0 mi NNW 4.6 mph - N/A   Clear
7:55 AM 45.7 °F - 25.5 °F 45% 30.35 in 10.0 mi Calm Calm - N/A   Clear
8:15 AM 46.0 °F - 25.7 °F 45% 30.34 in 10.0 mi Calm Calm - N/A   Clear
8:35 AM 46.6 °F - 26.4 °F 45% 30.35 in 10.0 mi Calm Calm - N/A   Clear
8:55 AM 48.2 °F - 26.6 °F 43% 30.35 in 10.0 mi Calm Calm - N/A   Clear
9:15 AM 48.7 °F - 27.7 °F 44% 30.35 in 10.0 mi Calm Calm - N/A   Clear
9:35 AM 50.0 °F - 29.3 °F 45% 30.35 in 10.0 mi Calm Calm - N/A   Clear
9:55 AM 51.6 °F - 30.9 °F 45% 30.35 in 10.0 mi NE 4.6 mph - N/A   Clear
10:15 AM 51.6 °F - 31.1 °F 45% 30.35 in 10.0 mi East 3.5 mph - N/A   Clear
10:35 AM 52.5 °F - 31.3 °F 44% 30.35 in 10.0 mi ENE 3.5 mph - N/A   Clear
10:55 AM 53.8 °F - 31.1 °F 42% 30.35 in 10.0 mi ENE 3.5 mph - N/A   Clear
11:15 AM 55.6 °F - 29.1 °F 36% 30.35 in 10.0 mi ENE 3.5 mph - N/A   Clear
11:35 AM 56.8 °F - 24.6 °F 29% 30.35 in 10.0 mi East 4.6 mph - N/A   Clear
11:55 AM 57.7 °F - 23.7 °F 27% 30.33 in 10.0 mi ESE 4.6 mph - N/A   Clear
12:15 PM 59.0 °F - 25.9 °F 28% 30.33 in 10.0 mi ESE 8.1 mph - N/A   Clear
12:35 PM 59.9 °F - 24.6 °F 26% 30.32 in 10.0 mi ESE 8.1 mph - N/A   Clear
12:55 PM 60.1 °F - 22.3 °F 23% 30.31 in 10.0 mi ESE 5.8 mph - N/A   Clear
1:15 PM 60.4 °F - 22.5 °F 23% 30.30 in 10.0 mi East 6.9 mph - N/A   Clear
1:35 PM 61.7 °F - 23.0 °F 23% 30.29 in 10.0 mi SSE 4.6 mph - N/A   Clear
1:55 PM 62.4 °F - 24.3 °F 23% 30.28 in 10.0 mi SE 5.8 mph - N/A   Clear
2:15 PM 63.0 °F - 23.5 °F 22% 30.27 in 10.0 mi Calm Calm - N/A   Clear
2:35 PM 64.0 °F - 24.8 °F 23% 30.26 in 10.0 mi East 3.5 mph - N/A   Clear
2:55 PM 64.9 °F - 25.9 °F 23% 30.25 in 10.0 mi NE 6.9 mph - N/A   Clear
3:15 PM 64.6 °F - 25.3 °F 23% 30.25 in 10.0 mi ENE 5.8 mph - N/A   Clear
3:35 PM 65.7 °F - 26.1 °F 22% 30.24 in 10.0 mi Calm Calm - N/A   Clear
3:55 PM 65.7 °F - 25.3 °F 22% 30.23 in 10.0 mi South 4.6 mph - N/A   Clear
4:15 PM 67.1 °F - 26.2 °F 21% 30.23 in 10.0 mi ESE 6.9 mph - N/A   Clear
4:35 PM 66.4 °F - 25.9 °F 22% 30.23 in 10.0 mi NE 3.5 mph - N/A   Clear
4:55 PM 66.7 °F - 25.9 °F 21% 30.23 in 10.0 mi East 3.5 mph - N/A   Clear
5:15 PM 67.1 °F - 26.2 °F 21% 30.23 in 10.0 mi Calm Calm - N/A   Clear
5:35 PM 67.1 °F - 26.4 °F 22% 30.22 in 10.0 mi ENE 4.6 mph - N/A   Clear
5:55 PM 66.2 °F - 25.7 °F 22% 30.23 in 10.0 mi Calm Calm - N/A   Clear
6:15 PM 65.7 °F - 25.5 °F 22% 30.22 in 10.0 mi Calm Calm - N/A   Clear
6:35 PM 65.3 °F - 25.7 °F 22% 30.22 in 10.0 mi Calm Calm - N/A   Clear
6:55 PM 64.6 °F - 25.5 °F 23% 30.22 in 10.0 mi Calm Calm - N/A   Clear
7:15 PM 63.9 °F - 25.7 °F 24% 30.23 in 10.0 mi Calm Calm - N/A   Clear
7:35 PM 63.0 °F - 20.8 °F 20% 30.24 in 10.0 mi West 9.2 mph - N/A   Clear
7:55 PM 63.1 °F - 16.7 °F 17% 30.24 in 10.0 mi WNW 5.8 mph - N/A   Clear
8:15 PM 62.6 °F - 16.5 °F 17% 30.25 in 10.0 mi Calm Calm - N/A   Clear
8:35 PM 62.2 °F - 16.3 °F 17% 30.25 in 10.0 mi Calm Calm - N/A   Clear
8:55 PM 61.7 °F - 16.5 °F 17% 30.25 in 10.0 mi Calm Calm - N/A   Clear
9:15 PM 60.6 °F - 17.6 °F 19% 30.25 in 10.0 mi West 3.5 mph - N/A   Clear
9:35 PM 61.0 °F - 16.3 °F 18% 30.26 in 10.0 mi Calm Calm - N/A   Clear
9:55 PM 61.7 °F - 15.4 °F 17% 30.26 in 10.0 mi NW 6.9 mph - N/A   Clear
10:15 PM 61.7 °F - 15.3 °F 16% 30.25 in 10.0 mi Calm Calm - N/A   Clear
10:35 PM 60.8 °F - 16.2 °F 18% 30.25 in 10.0 mi North 5.8 mph - N/A   Clear
10:55 PM 60.4 °F - 16.5 °F 18% 30.25 in 10.0 mi WNW 3.5 mph - N/A   Clear
11:15 PM 59.5 °F - 18.9 °F 21% 30.24 in 10.0 mi NE 4.6 mph - N/A   Clear
11:35 PM 56.7 °F - 21.2 °F 25% 30.25 in 10.0 mi Calm Calm - N/A   Clear
11:55 PM 57.2 °F - 21.0 °F 25% 30.24 in 10.0 mi NNE 3.5 mph - N/A   Clear